Other Public Products
Issued by NWS Charleston, SC

Current Version | Previous Version | Graphics & Text | Print | Product List | Glossary On
Versions: 1 2 3 4 5 6 7 8 9 10 11 12 13 14 15 16 17 18 19 20 21 22 23 24 25 26 27 28 29 30 31 32 33 34 35 36 37 38 39 40 41 42 43 44 45 46 47 48 49 50
000
FPUS82 KCHS 212340
OPUCHS

TEST...KCHS/KSAV Gateway Observations...TEST
National Weather Service Charleston SC
700 PM EDT THU SEP 21 2017

NOTE: "fair" indicates few or no clouds below 12,000 feet with no
significant weather and/or obstructions to visibility.

SCZ050-WAZ558-NCZ071-TXZ119-213-PAZ071-DCZ001-FLZ074-172-MI076-
NYZ176-178-MAZ016-IL014-TNZ027-NJZ106-GAZ044-MD014-220000-

...Gateway Observations for Charleston International...

CITY           SKY/WX    TMP DP  RH WIND       PRES   REMARKS
Chas Airport   CLOUDY    75  68  78 CALM      29.98R
Seattle        PTSUNNY   62  48  60 VRB3      29.96R
Charlotte      PTCLDY    82  66  58 N5        30.02R
Dallas DFW     MOSUNNY   94  67  41 SE12      29.84S HX  97
Dallas Love    MOSUNNY   94  67  41 SE18      29.85S HX  97
Philladelphia  CLOUDY    81  61  50 NE5       30.00R
Wash National  MOCLDY    82  65  56 N7        30.02R
Baltimore      MOCLDY    81  66  60 NW5       30.01R
Miami          MOCLDY    85  78  80 NE9       29.88S HX  96
Detroit        CLOUDY    80  71  74 S6        30.06R
Newark         CLOUDY    78  57  48 N12       29.99S
Laguardia      CLOUDY    77  64  64 N8        29.99S
J F K          CLOUDY    77  63  61 N10       30.00S
Boston Logan   CLOUDY    67  52  58 N16       30.01S
Ft. Lauderdale MOCLDY    83  76  79 NE10      29.87F HX  91
Chicago O`Hare PTCLDY    90  65  43 S9        29.96F HX  92
Chicago Midway PTCLDY    92  69  47 S13       29.96F HX  97
Houston Bush   CLOUDY    79  72  79 SE9       29.94R
Houston Hobby  CLOUDY    80  74  81 SE6       29.93S
Nashville      PTCLDY    77  72  84 SW3       30.02S
Atlanta        CLOUDY    78  67  68 SW6       30.01R

$$

GAZ044-118-TXZ119-213-NCZ071-DCZ001-MDZ014-506-PAZ021-071-NJZ106-
NYZ176-178-MAZ106-OHZ011-021-055-MIZ076-KYZ091-ILZ014-INZ047-
MNZ060-ONZ431-220000-

...Gateway Observations for Savannah International...

CITY           SKY/WX    TMP DP  RH WIND       PRES   REMARKS
Savannah Arpt  PTCLDY    84  69  60 SE6       29.98R
Atlanta        CLOUDY    78  67  68 SW6       30.01R
Charlotte      PTCLDY    82  66  58 N5        30.02R
Dallas DFW     MOSUNNY   94  67  41 SE12      29.84S HX  97
Houston Bush   CLOUDY    79  72  79 SE9       29.94R
Wash National  MOCLDY    82  65  56 N7        30.02R
Wash Dulles    MOCLDY    80  64  58 NW6       30.03S
Baltimore      MOCLDY    81  66  60 NW5       30.01R
Philadelphia   CLOUDY    81  61  50 NE5       30.00R
Newark         CLOUDY    78  57  48 N12       29.99S
Laguardia      CLOUDY    77  64  64 N8        29.99S
J F K          CLOUDY    77  63  61 N10       30.00S
Boston         CLOUDY    67  52  58 N16       30.01S
Pittsburg      PTCLDY    83  61  47 E3        30.07F
Akron          PTCLDY    85  60  42 CALM      30.07S
Cleveland      PTCLDY    84  65  52 NE8       30.08S
Cincinnati     MOCLDY    79  72  79 W6        30.04S
Columbus       CLEAR     80  66  62 SE5       30.04S
Detroit        CLOUDY    80  71  74 S6        30.06R
Chicago O`Hare PTCLDY    90  65  43 S9        29.96F HX  92
Minneapolis    MOSUNNY   83  70  64 SE10      29.80S
Indianapolis   PTCLDY    87  67  51 S6        30.02S HX  90
Toronto Canada PTCLDY    77  61  57 SE6       30.10S

$$




USA.gov is the U.S. government's official web portal to all federal, state and local government web resources and services.